Other Public Products
Issued by NWS Charleston, SC

Current Version | Previous Version | Graphics & Text | Print | Product List | Glossary On
Versions: 1 2 3 4 5 6 7 8 9 10 11 12 13 14 15 16 17 18 19 20 21 22 23 24 25 26 27 28 29 30 31 32 33 34 35 36 37 38 39 40 41 42 43 44 45 46 47 48 49 50
305
FPUS82 KCHS 211227
OPUCHS

TEST...KCHS/KSAV Gateway Observations...TEST
National Weather Service Charleston SC
700 AM EST TUE NOV 21 2017

NOTE: "fair" indicates few or no clouds below 12,000 feet with no
significant weather and/or obstructions to visibility.

SCZ050-WAZ558-NCZ071-TXZ119-213-PAZ071-DCZ001-FLZ074-172-MI076-
NYZ176-178-MAZ016-IL014-TNZ027-NJZ106-GAZ044-MD014-211300-

...Gateway Observations for Charleston International...

CITY           SKY/WX    TMP DP  RH WIND       PRES   REMARKS
Chas Airport   CLOUDY    48  45  89 N3        30.18S
6HR MIN TEMP:  42; 6HR MAX TEMP:  49;

Seattle        CLOUDY    41  39  93 NE5       30.00F
6HR MIN TEMP:  38; 6HR MAX TEMP:  43;

Charlotte      MOCLDY    42  32  67 CALM      30.20S
6HR MIN TEMP:  37; 6HR MAX TEMP:  42;

Dallas DFW     MOCLDY    50  47  89 SE9       29.83R
6HR MIN TEMP:  48; 6HR MAX TEMP:  54;

Dallas Love    MOCLDY    51  46  83 S13       29.86R
6HR MIN TEMP:  50; 6HR MAX TEMP:  55;

Philladelphia  PTCLDY    41  31  67 S5        30.15S
6HR MIN TEMP:  40; 6HR MAX TEMP:  43;

Wash National  PTCLDY    41  32  70 S10       30.15R
6HR MIN TEMP:  40; 6HR MAX TEMP:  42;

Baltimore      PTCLDY    39  29  67 SW6       30.13R WCI  35
6HR MIN TEMP:  29; 6HR MAX TEMP:  39;

Miami          PTCLDY    72  70  93 N3        29.98R
6HR MIN TEMP:  71; 6HR MAX TEMP:  74; 6HR PCP:  0.36;

Detroit        CLOUDY    40  26  57 SW21G28   29.73S WCI  30
6HR MIN TEMP:  39; 6HR MAX TEMP:  40;

Newark         MOCLDY    37  27  67 W5        30.13F WCI  33
6HR MIN TEMP:  36; 6HR MAX TEMP:  39;

Laguardia      PTCLDY    44  29  55 SW8       30.13R
6HR MIN TEMP:  43; 6HR MAX TEMP:  45;

J F K          PTCLDY    43  33  68 SW14      30.15S
6HR MIN TEMP:  40; 6HR MAX TEMP:  43;

Boston Logan   PTCLDY    36  26  67 SW6       30.11R WCI  31
6HR MIN TEMP:  35; 6HR MAX TEMP:  39;

Ft. Lauderdale MOCLDY    71  71 100 N5        29.97R
6HR MIN TEMP:  70; 6HR MAX TEMP:  76; 6HR PCP:  1.85;

Chicago O`Hare CLOUDY    42  31  64 SW12G23   29.66F
6HR MIN TEMP:  42; 6HR MAX TEMP:  44;

Chicago Midway MOCLDY    43  32  65 SW12      29.68F
6HR MIN TEMP:  42; 6HR MAX TEMP:  44;

Houston Bush   CLOUDY    56  53  90 NE3       29.92F
6HR MIN TEMP:  49; 6HR MAX TEMP:  56;

Houston Hobby  CLOUDY    61  60  97 CALM      29.91F
6HR MIN TEMP:  58; 6HR MAX TEMP:  62;

Nashville      CLOUDY    36  29  75 CALM      30.07R
6HR MIN TEMP:  34; 6HR MAX TEMP:  41;

Atlanta        CLOUDY    45  39  79 E7        30.13S
6HR MIN TEMP:  42; 6HR MAX TEMP:  46;


$$

GAZ044-118-TXZ119-213-NCZ071-DCZ001-MDZ014-506-PAZ021-071-NJZ106-
NYZ176-178-MAZ106-OHZ011-021-055-MIZ076-KYZ091-ILZ014-INZ047-
MNZ060-ONZ431-211300-

...Gateway Observations for Savannah International...

CITY           SKY/WX    TMP DP  RH WIND       PRES   REMARKS
Savannah Arpt  MOCLDY    52  49  89 NE5       30.14F
6HR MIN TEMP:  50; 6HR MAX TEMP:  54;

Atlanta        CLOUDY    45  39  79 E7        30.13S
6HR MIN TEMP:  42; 6HR MAX TEMP:  46;

Charlotte      MOCLDY    42  32  67 CALM      30.20S
6HR MIN TEMP:  37; 6HR MAX TEMP:  42;

Dallas DFW     MOCLDY    50  47  89 SE9       29.83R
6HR MIN TEMP:  48; 6HR MAX TEMP:  54;

Houston Bush   CLOUDY    56  53  90 NE3       29.92F
6HR MIN TEMP:  49; 6HR MAX TEMP:  56;

Wash National  PTCLDY    41  32  70 S10       30.15R
6HR MIN TEMP:  40; 6HR MAX TEMP:  42;

Wash Dulles    PTCLDY    34  27  75 S6        30.13R WCI  29
6HR MIN TEMP:  34; 6HR MAX TEMP:  39;

Baltimore      PTCLDY    39  29  67 SW6       30.13R WCI  35
6HR MIN TEMP:  29; 6HR MAX TEMP:  39;

Philadelphia   PTCLDY    41  31  67 S5        30.15S
6HR MIN TEMP:  40; 6HR MAX TEMP:  43;

Newark         MOCLDY    37  27  67 W5        30.13F WCI  33
6HR MIN TEMP:  36; 6HR MAX TEMP:  39;

Laguardia      PTCLDY    44  29  55 SW8       30.13R
6HR MIN TEMP:  43; 6HR MAX TEMP:  45;

J F K          PTCLDY    43  33  68 SW14      30.15S
6HR MIN TEMP:  40; 6HR MAX TEMP:  43;

Boston         PTCLDY    36  26  67 SW6       30.11R WCI  31
6HR MIN TEMP:  35; 6HR MAX TEMP:  39;

Pittsburg      PTCLDY    41  18  39 S8        29.95S
6HR MIN TEMP:  31; 6HR MAX TEMP:  41;

Akron          CLOUDY    38  22  52 SW16      29.89F WCI  29
6HR MIN TEMP:  37; 6HR MAX TEMP:  39;

Cleveland      MOCLDY    40  24  53 S15       29.85F WCI  32
6HR MIN TEMP:  39; 6HR MAX TEMP:  41;

Cincinnati     CLOUDY    40  27  59 S14G21    29.95F WCI  32
6HR MIN TEMP:  36; 6HR MAX TEMP:  40;

Columbus       CLOUDY    38  26  61 SW15G21   29.95S WCI  30
Detroit        CLOUDY    40  26  57 SW21G28   29.73S WCI  30
6HR MIN TEMP:  39; 6HR MAX TEMP:  40;

Chicago O`Hare CLOUDY    42  31  64 SW12G23   29.66F
6HR MIN TEMP:  42; 6HR MAX TEMP:  44;

Minneapolis    CLOUDY    28  16  60 NW24G30   29.78R WCI  14
6HR MIN TEMP:  28; 6HR MAX TEMP:  42;

Indianapolis   CLOUDY    41  25  53 SW13      29.88R
6HR MIN TEMP:  36; 6HR MAX TEMP:  42;

Toronto Canada MOCLDY    43  30  61 S18G28    29.67F

$$




USA.gov is the U.S. government's official web portal to all federal, state and local government web resources and services.